| time (UTC) | temp C | wind direction | speed KPH | gust KPH | rain 1hr cm | rain 24hr cm | rain mn cm | humidity % | barometer mb |
| 20260902174538 | 33 | 0.0 | 0.0 | 0.00 | 0.00 | 0.00 | 56 | 1017.9 | |
| 20260902173021 | 33 | 0.0 | 0.0 | 0.00 | 0.00 | 0.00 | 59 | 1018.1 | |
| 20260902171521 | 33 | 0.0 | 0.0 | 0.00 | 0.00 | 0.00 | 56 | 1018.4 | |
| 20260902170002 | 33 | 0.0 | 0.0 | 0.00 | 0.00 | 0.00 | 60 | 1018.5 | |
| 20260902164502 | 33 | 0.0 | 0.0 | 0.00 | 0.00 | 0.00 | 59 | 1018.8 | |
| 20260902163100 | 33 | 0.0 | 0.0 | 0.00 | 0.00 | 0.00 | 58 | 1018.8 | |
| 20260902161541 | 33 | 0.0 | 0.0 | 0.00 | 0.00 | 0.00 | 60 | 1019.0 | |
| 20260902160037 | 32 | 0.0 | 0.0 | 0.00 | 0.00 | 0.00 | 61 | 1019.1 | |
| 20260902154520 | 32 | 0.0 | 0.0 | 0.00 | 0.00 | 0.00 | 63 | 1019.3 | |
| 20260902153017 | 31 | 0.0 | 0.0 | 0.00 | 0.00 | 0.00 | 68 | 1019.2 | |
| 20260902151558 | 31 | 0.0 | 0.0 | 0.00 | 0.00 | 0.00 | 70 | 1019.3 | |
| 20260902150052 | 31 | 0.0 | 0.0 | 0.00 | 0.00 | 0.00 | 74 | 1019.2 | |
| 20260902144529 | 30 | 0.0 | 0.0 | 0.00 | 0.00 | 0.00 | 76 | 1019.2 | |
| 20260902143027 | 30 | 0.0 | 0.0 | 0.00 | 0.00 | 0.00 | 77 | 1019.1 | |
| 20260902141515 | 28 | 0.0 | 0.0 | 0.00 | 0.00 | 0.00 | 81 | 1019.1 | |
| 20260902140001 | 27 | 0.0 | 0.0 | 0.00 | 0.00 | 0.00 | 83 | 1019.0 | |
| 20260902134541 | 26 | 0.0 | 0.0 | 0.00 | 0.00 | 0.00 | 89 | 1019.0 | |
| 20260902133037 | 25 | 0.0 | 0.0 | 0.00 | 0.00 | 0.00 | 93 | 1019.1 | |
| 20260902131515 | 24 | 0.0 | 0.0 | 0.00 | 0.00 | 0.00 | 94 | 1019.0 | |
| 20260902130013 | 23 | 0.0 | 0.0 | 0.00 | 0.00 | 0.00 | 95 | 1019.0 | |
| 20260902124602 | 23 | 0.0 | 0.0 | 0.00 | 0.00 | 0.00 | 95 | 1019.0 | |
| 20260902123053 | 22 | 0.0 | 0.0 | 0.00 | 0.00 | 0.00 | 95 | 1018.9 | |
| 20260902121538 | 22 | 0.0 | 0.0 | 0.00 | 0.00 | 0.00 | 95 | 1018.9 | |
| 20260902120033 | 22 | 0.0 | 0.0 | 0.00 | 0.00 | 0.00 | 95 | 1018.8 | |
| 20260902114514 | 22 | 0.0 | 0.0 | 0.00 | 0.00 | 0.00 | 95 | 1018.5 | |
| 20260902113014 | 22 | 0.0 | 0.0 | 0.00 | 0.00 | 0.00 | 95 | 1018.5 | |
| 20260902111558 | 22 | 0.0 | 0.0 | 0.00 | 0.00 | 0.00 | 95 | 1018.4 | |
| 20260902110055 | 22 | 0.0 | 0.0 | 0.00 | 0.00 | 0.00 | 95 | 1018.3 | |
| 20260902104539 | 22 | 0.0 | 0.0 | 0.00 | 0.00 | 0.00 | 95 | 1018.2 | |
| 20260902103043 | 22 | 0.0 | 0.0 | 0.00 | 0.00 | 0.00 | 95 | 1018.0 | |
| 20260902101525 | 22 | 0.0 | 0.0 | 0.00 | 0.00 | 0.00 | 95 | 1018.0 | |
| 20260902100015 | 22 | 0.0 | 0.0 | 0.00 | 0.00 | 0.00 | 95 | 1018.0 | |
| 20260902094556 | 22 | 0.0 | 0.0 | 0.00 | 0.00 | 0.00 | 95 | 1017.7 | |
| 20260902093130 | 22 | 0.0 | 0.0 | 0.00 | 0.00 | 0.00 | 95 | 1017.6 | |
| 20260902091544 | 22 | 0.0 | 0.0 | 0.00 | 0.00 | 0.00 | 95 | 1017.4 | |
| 20260902090033 | 23 | 0.0 | 0.0 | 0.00 | 0.00 | 0.00 | 95 | 1017.3 | |
| 20260902084516 | 23 | 0.0 | 0.0 | 0.00 | 0.00 | 0.00 | 95 | 1017.2 | |
| 20260902083013 | 23 | 0.0 | 0.0 | 0.00 | 0.00 | 0.00 | 95 | 1017.1 | |
| 20260902081613 | 23 | 0.0 | 0.0 | 0.00 | 0.00 | 0.00 | 95 | 1017.0 | |
| 20260902080054 | 23 | 0.0 | 0.0 | 0.00 | 0.00 | 0.00 | 95 | 1017.0 | |
| 20260902074535 | 23 | 0.0 | 0.0 | 0.00 | 0.00 | 0.00 | 94 | 1016.9 | |
| 20260902073036 | 23 | 0.0 | 0.0 | 0.00 | 0.00 | 0.00 | 94 | 1016.8 | |
| 20260902071515 | 23 | 0.0 | 0.0 | 0.00 | 0.00 | 0.00 | 94 | 1016.9 | |
| 20260902070020 | 23 | 0.0 | 0.0 | 0.00 | 0.00 | 0.00 | 94 | 1016.9 | |
| 20260902064617 | 23 | 0.0 | 0.0 | 0.00 | 0.00 | 0.00 | 94 | 1017.0 | |
| 20260902063059 | 23 | 0.0 | 0.0 | 0.00 | 0.00 | 0.00 | 94 | 1017.0 | |
| 20260902060110 | 23 | 0.0 | 0.0 | 0.00 | 0.00 | 0.00 | 94 | 1017.2 | |
| 20260902054559 | 24 | 0.0 | 0.0 | 0.00 | 0.00 | 0.00 | 94 | 1017.3 | |
| 20260902053056 | 24 | 0.0 | 0.0 | 0.00 | 0.00 | 0.00 | 94 | 1017.3 | |
| 20260902051557 | 24 | 0.0 | 0.0 | 0.00 | 0.00 | 0.00 | 94 | 1017.2 | |
| 20260902050110 | 24 | 0.0 | 0.0 | 0.00 | 0.00 | 0.00 | 93 | 1017.3 | |
| 20260902044608 | 24 | 0.0 | 0.0 | 0.00 | 0.00 | 0.00 | 93 | 1017.3 | |
| 20260902043056 | 25 | 0.0 | 0.0 | 0.00 | 0.00 | 0.00 | 93 | 1017.3 | |
| 20260902041556 | 25 | 0.0 | 0.0 | 0.00 | 0.00 | 0.00 | 92 | 1017.4 | |
| 20260902040058 | 25 | 0.0 | 0.0 | 0.00 | 0.00 | 0.00 | 92 | 1017.3 | |
| 20260902034601 | 25 | 0.0 | 0.0 | 0.00 | 0.00 | 0.00 | 92 | 1017.4 | |
| 20260902033105 | 25 | 0.0 | 0.0 | 0.00 | 0.00 | 0.00 | 91 | 1017.4 | |
| 20260902031534 | 25 | 0.0 | 0.0 | 0.00 | 0.00 | 0.00 | 90 | 1017.5 | |
| 20260902030034 | 25 | 0.0 | 0.0 | 0.00 | 0.00 | 0.00 | 90 | 1017.5 | |
| 20260902024521 | 26 | 0.0 | 0.0 | 0.00 | 0.00 | 0.00 | 89 | 1017.5 | |
| 20260902023016 | 26 | 0.0 | 0.0 | 0.00 | 0.00 | 0.00 | 88 | 1017.4 | |
| 20260902021601 | 26 | 0.0 | 0.0 | 0.00 | 0.00 | 0.00 | 88 | 1017.3 | |
| 20260902020111 | 26 | 0.0 | 0.0 | 0.00 | 0.00 | 0.00 | 87 | 1017.1 | |
| 20260902014543 | 26 | 0.0 | 0.0 | 0.00 | 0.00 | 0.00 | 85 | 1017.0 | |
| 20260902013040 | 27 | 0.0 | 0.0 | 0.00 | 0.00 | 0.00 | 83 | 1016.9 | |
| 20260902011527 | 27 | 0.0 | 0.0 | 0.00 | 0.00 | 0.00 | 82 | 1016.7 | |
| 20260902010023 | 27 | 0.0 | 0.0 | 0.00 | 0.00 | 0.00 | 78 | 1016.6 | |
| 20260902004505 | 28 | 0.0 | 0.0 | 0.00 | 0.00 | 0.00 | 76 | 1016.4 | |
| 20260902003003 | 29 | 0.0 | 0.0 | 0.00 | 0.00 | 0.00 | 75 | 1016.4 | |
| 20260902001545 | 30 | 0.0 | 0.0 | 0.00 | 0.00 | 0.00 | 74 | 1016.3 | |
| 20260902000044 | 31 | 0.0 | 0.0 | 0.00 | 0.00 | 0.00 | 72 | 1016.3 | |
| 20260901234525 | 32 | 0.0 | 0.0 | 0.00 | 0.00 | 0.00 | 65 | 1016.4 | |
| 20260901233025 | 32 | 0.0 | 0.0 | 0.00 | 0.00 | 0.00 | 60 | 1016.5 | |
| 20260901231508 | 33 | 0.0 | 0.0 | 0.00 | 0.00 | 0.00 | 55 | 1016.6 | |
| 20260901230008 | 33 | 0.0 | 0.0 | 0.00 | 0.00 | 0.00 | 54 | 1016.6 | |
| 20260901224550 | 34 | 0.0 | 0.0 | 0.00 | 0.00 | 0.00 | 54 | 1016.6 | |
| 20260901223051 | 34 | 0.0 | 0.0 | 0.00 | 0.00 | 0.00 | 54 | 1016.5 | |
| 20260901221531 | 33 | 0.0 | 0.0 | 0.00 | 0.00 | 0.00 | 55 | 1016.4 | |
| 20260901220036 | 34 | 0.0 | 0.0 | 0.00 | 0.00 | 0.00 | 54 | 1016.4 | |
| 20260901214513 | 33 | 0.0 | 0.0 | 0.00 | 0.00 | 0.00 | 55 | 1016.4 | |
| 20260901213013 | 34 | 0.0 | 0.0 | 0.00 | 0.00 | 0.00 | 54 | 1016.5 | |
| 20260901211553 | 34 | 0.0 | 0.0 | 0.00 | 0.00 | 0.00 | 52 | 1016.6 | |
| 20260901210052 | 33 | 0.0 | 0.0 | 0.00 | 0.00 | 0.00 | 55 | 1016.8 | |
| 20260901204543 | 33 | 0.0 | 0.0 | 0.00 | 0.00 | 0.00 | 57 | 1016.8 | |
| 20260901203034 | 33 | 0.0 | 0.0 | 0.00 | 0.00 | 0.00 | 53 | 1017.0 | |
| 20260901201514 | 34 | 0.0 | 0.0 | 0.00 | 0.00 | 0.00 | 53 | 1017.1 | |
| 20260901200012 | 33 | 0.0 | 0.0 | 0.00 | 0.00 | 0.00 | 55 | 1017.4 | |
| 20260901194558 | 33 | 0.0 | 0.0 | 0.00 | 0.00 | 0.00 | 52 | 1017.4 | |
| 20260901193056 | 33 | 0.0 | 0.0 | 0.00 | 0.00 | 0.00 | 56 | 1017.6 | |
| 20260901191534 | 33 | 0.0 | 0.0 | 0.00 | 0.00 | 0.00 | 56 | 1017.8 | |
| 20260901190034 | 33 | 0.0 | 0.0 | 0.00 | 0.00 | 0.00 | 57 | 1018.0 | |
| 20260901184522 | 33 | 0.0 | 0.0 | 0.00 | 0.00 | 0.00 | 56 | 1018.1 | |
| 20260901183013 | 33 | 0.0 | 0.0 | 0.00 | 0.00 | 0.00 | 57 | 1018.3 | |
| 20260901181558 | 33 | 0.0 | 0.0 | 0.00 | 0.00 | 0.00 | 57 | 1018.4 | |
| 20260901180051 | 32 | 0.0 | 0.0 | 0.00 | 0.00 | 0.00 | 61 | 1018.6 |